Location: Passau
(48.5830°N, 13.4830°E)
Time: 18:07:11
(UTC+02:00)

S-56A Canister/Altair - Visible Passes

Search period start: 28 July 2021 00:00
Search period end: 07 August 2021 00:00
Orbit: 631 x 2501 km, 38.9° (Epoch: 27 July)

Date Brightness Start Highest point End Pass type
(mag) Time Alt. Az. Time Alt. Az. Time Alt. Az.
28 Jul 10.5 00:11:44 10° W 00:18:30 17° SW 00:21:22 15° SSW visible
28 Jul 10.2 21:29:07 10° W 21:42:31 44° SSW 21:52:43 10° SE visible
28 Jul 10.5 23:37:21 10° W 23:45:46 20° SW 23:50:07 16° SSW visible
29 Jul 10.5 23:03:10 10° W 23:12:57 24° SW 23:18:54 15° S visible
30 Jul 10.6 22:29:09 10° W 22:40:03 28° SW 22:47:43 13° S visible
31 Jul 10.7 21:55:14 10° W 22:07:04 31° SW 22:16:34 10° SSE visible
01 Aug 10.7 21:21:25 10° W 21:33:59 35° SW 21:44:24 10° SSE visible
01 Aug 11.1 23:32:58 10° WSW 23:36:39 12° WSW 23:40:06 10° SW visible
02 Aug 11.0 22:57:26 10° W 23:03:53 15° SW 23:09:40 10° SSW visible
03 Aug 11.0 22:22:46 10° W 22:31:01 18° SW 22:38:21 10° SSW visible
04 Aug 11.1 21:48:28 10° W 21:58:04 21° SW 22:06:37 10° S visible
05 Aug 11.1 21:14:25 10° W 21:25:03 24° SW 21:34:37 10° S visible
